Location: Zagreb
(45.8000°N, 16.0000°E)
Time: 07:50:40
(UTC+02:00)

ISS - Visible Passes

Search period start: 23 October 2014 00:00
Search period end: 01 November 2014 23:00
Orbit: 413 x 416 km, 51.6° (Epoch: 22 October)

Date Brightness Start Highest point End Pass type
(mag) Time Alt. Az. Time Alt. Az. Time Alt. Az.
23 Oct -3.0 18:40:22 10° WNW 18:43:40 52° NNE 18:46:33 13° E visible
23 Oct -1.2 20:17:16 10° WNW 20:19:26 27° WSW 20:19:26 27° WSW visible
24 Oct -2.5 19:27:58 10° WNW 19:31:13 49° SW 19:32:34 29° SSE visible
25 Oct -3.2 18:38:45 10° WNW 18:42:05 80° SSW 18:45:25 10° ESE visible
25 Oct -0.4 20:16:42 10° WSW 20:18:18 13° SW 20:18:42 13° SW visible
26 Oct -0.9 18:26:42 10° W 18:29:18 21° SW 18:31:53 10° S visible
27 Oct -1.6 17:37:08 10° WNW 17:40:12 34° SW 17:43:15 10° SSE visible
29 Oct -0.2 17:36:01 10° W 17:37:58 15° SW 17:39:54 10° S visible
